Weather in Martapura

Indonesia     3°26′36″S   114°49′36″E
temp.,
°C
wind,
m/s
gust,
m/s
humid.,
%
clouds,
%
prec.,
mm/h
press.,
hPa
HPBL,
m
20 may, fri
fri2023:00+25sse1193100 0.4 101115
02:00+24e1195100 0.6 100912
05:00+23ene1198100 6.9 100924
08:00+25ne1394100 7.6 1011188
11:00+29nw1182100 6.0 1011309
14:00+30wsw0174100 10.3 1008777
17:00+26nw1292100 2.9 100753
20:00+25sse0095100 5.4 100911
21 may, sat
sat2123:00+24ene1196100 0.2 101014
02:00+23nne1399100 4.7 1009112
05:00+23ene1299100 2.2 100964
08:00+24nnw129776 6.8 1011208
11:00+29n227446 1.1 1010797
14:00+28wnw1284100 7.4 1007430
17:00+24s2398100 6.4 100895
20:00+23se1198100 9.8 101037
22 may, sun
sun2223:00+23se1298100 2.9 101078
02:00+23s2397100 3.5 1009100
05:00+22s2497100 0.8 1009126
08:00+23ssw1498100 1.6 1010161
11:00+24sse1297100 0.5 1010113
14:00+25wsw019398 0.5 1008226
17:00+25ene1291100 0.0 1007152
20:00+24ne1195100 0.0 100941
23 may, mon
mon2323:00+23ene1193100 0.0 100926
02:00+23ne1191100 0.0 100825
05:00+23e119195 0.0 100813
08:00+25ne118436 0.0 1009137
11:00+31ene12585 0.0 10091014
14:00+33sse015175 0.0 10061446
17:00+31ssw236747 0.1 1006219
20:00+25sse129033 0.1 100835
24 may, tue
tue2423:00+25se119041 0.0 100925
02:00+24ese119229 0.0 100813
05:00+24ene019413 0.0 100811
08:00+27ne1181100 0.0 1010202
11:00+33e125733 0.1 10101144
14:00+33sse325685 0.9 10071164
17:00+30s246990 0.4 1007349
20:00+26se238938 0.4 100975